Latest Coastal Weather Observations for Norfolk Island

IDN60701

Issued at 6:11 pm EDT Saturday 13 February 2016 (issued every 10 minutes, with the page automatically refreshed every 10 minutes)

About coastal observations | Map of coastal stations | Coastal observations for NSW | Marine services | Other Formats
Station Details ID: 200288 Name: NORFOLK ISLAND AERO Lat: -29.04 Lon: 167.94 Height: 111.73 m
Data from the previous 72 hours. | See also: Recent months at Norfolk Island
Date/Time
EDT
Temp

°C
Wind Pressure Rain
since 9am
mm
Weather Cloud Vis
km
Sea
Height
m
Swell
Dir
 
Speed
knots
Gust
knots
hPa Trend Height
m
Period
s
Dir
13/06:00pm 23.3 E 17 25 1007.9 - 0.0 Drizzle Cloudy 4 - - - -
13/05:30pm 23.5 E 16 24 1008.4 - 0.0 - Cloudy 5 - - - -
13/05:00pm 23.6 E 14 23 1008.4 - 0.0 Showers Cloudy 6 - - - -
13/04:30pm 23.8 E 16 21 1008.2 - 0.0 - Cloudy 8 - - - -
13/04:23pm 23.9 E 17 27 1008.2 - 0.0 - Cloudy 8 - - - -
13/04:00pm 23.8 E 16 23 1008.3 - 0.0 - Cloudy 8 - - - -
13/03:53pm 23.8 E 15 26 1008.6 - 0.0 - Cloudy 6 - - - -
13/03:50pm 23.8 E 16 26 1008.6 - 0.0 - Cloudy 8 - - - -
13/03:30pm 23.7 E 17 24 1008.7 - 0.0 - Cloudy 8 - - - -
13/03:00pm 24.1 E 16 24 1008.6 - 0.0 Haze Cloudy 8 - - - -
13/02:30pm 23.9 E 14 21 1009.0 - 0.0 - Cloudy 8 - - - -
13/02:00pm 23.7 E 14 20 1009.0 - 0.0 - Cloudy 8 - - - -
13/01:30pm 23.7 E 15 20 1009.5 - 0.0 Showers Cloudy 8 - - - -
13/01:00pm 23.4 ESE 14 20 1009.9 - 0.0 Showers Cloudy 9 - - - -
13/12:30pm 23.6 E 13 20 1010.0 - 0.0 - Cloudy 9 - - - -
13/12:00pm 23.6 E 15 21 1009.9 - 0.0 Haze Cloudy 9 - - - -
13/11:30am 23.8 E 15 23 1010.3 - 0.0 - Mostly cloudy 9 - - - -
13/11:00am 23.6 E 14 22 1010.6 - 0.0 - Mostly cloudy 9 - - - -
13/10:30am 23.7 E 17 23 1010.7 - 0.0 - Mostly cloudy 9 - - - -
13/10:00am 23.3 E 18 27 1011.1 - 0.0 - Mostly cloudy 9 - - - -
13/09:47am 23.6 E 20 31 1011.1 - 0.0 - Mostly cloudy 9 - - - -
13/09:30am 23.4 E 18 25 1011.1 - 0.0 - Mostly cloudy 9 - - - -
13/09:17am 23.6 E 17 29 1011.1 - 0.0 - Mostly cloudy 9 - - - -
13/09:00am 23.7 E 17 24 1010.6 - 2.2 Haze Cloudy 9 - - - -
13/08:30am 23.4 E 15 19 1011.3 - 2.2 - Partly cloudy 10 - - - -
13/08:00am 23.5 E 16 21 1011.3 - 2.2 - Mostly clear 9 - - - -
13/07:34am 23.4 E 17 27 1011.0 - 2.2 - Mostly clear 9 - - - -
13/07:30am 23.3 E 18 27 1010.9 - 2.2 - Mostly clear 9 - - - -
13/07:00am 23.1 E 16 22 1010.6 - 2.2 - Partly cloudy 9 - - - -
13/06:30am 23.1 E 18 28 1010.4 - 2.2 - Partly cloudy 10 - - - -
13/06:26am 23.1 E 17 28 1010.4 - 2.2 - Partly cloudy 10 - - - -
13/06:00am 23.0 E 17 23 1009.5 - 2.2 - Cloudy 10 - - - -
13/05:39am 22.9 E 17 28 1010.2 - 2.2 - Partly cloudy 10 - - - -
13/05:30am 22.9 E 17 25 1010.0 - 2.2 - Partly cloudy 10 - - - -
13/05:00am 23.0 E 16 23 1009.8 - 2.2 - Partly cloudy 10 - - - -
13/04:30am 23.0 E 17 22 1009.8 - 2.2 - Partly cloudy 9 - - - -
13/04:13am 23.0 E 15 26 1009.6 - 2.2 - Partly cloudy 9 - - - -
13/04:00am 23.0 E 15 20 1010.0 - 2.2 - Partly cloudy 10 - - - -
13/03:30am 22.9 E 14 19 1009.7 - 2.2 - Partly cloudy 10 - - - -
13/03:00am 22.9 E 13 19 1009.2 - 2.2 - Cloudy 9 - - - -
13/02:30am 23.0 E 13 19 1010.0 - 2.2 - Partly cloudy 9 - - - -
13/02:00am 23.0 E 14 18 1010.3 - 2.2 - Partly cloudy 8 - - - -
13/01:33am 23.3 E 15 20 1010.4 - 2.2 - Partly cloudy 10 - - - -
13/01:32am 23.3 E 15 20 1010.5 - 2.2 - Partly cloudy 10 - - - -
13/01:30am 23.2 E 15 20 1010.5 - 2.2 - Partly cloudy 10 - - - -
13/01:17am 23.3 E 12 20 1010.6 - 2.2 - Partly cloudy 10 - - - -
13/01:00am 23.3 E 13 17 1010.7 - 2.2 - Partly cloudy 9 - - - -
13/12:30am 23.3 E 13 19 1010.9 - 2.2 - Cloudy 9 - - - -
13/12:00am 23.3 E 13 22 1010.9 - 2.2 - Cloudy 9 - - - -
 
Date/Time
EDT
Temp

°C
Wind Pressure Rain
since 9am
mm
Weather Cloud Vis
km
Sea
Height
m
Swell
Dir
 
Speed
knots
Gust
knots
hPa Trend Height
m
Period
s
Dir
12/11:50pm 23.4 E 16 20 1011.4 - 2.2 - Partly cloudy 8 - - - -
12/11:32pm 23.2 E 14 20 1011.4 - 2.2 - Cloudy 6 - - - -
12/11:30pm 23.2 E 14 19 1011.4 - 2.2 - Partly cloudy 8 - - - -
12/11:00pm 23.4 E 14 22 1012.0 - 2.2 - Partly cloudy 9 - - - -
12/10:30pm 23.4 E 15 21 1012.1 - 2.2 - Partly cloudy 9 - - - -
12/10:00pm 23.4 E 15 18 1012.5 - 2.2 - Partly cloudy 8 - - - -
12/09:30pm 23.4 E 17 25 1012.1 - 2.2 - Partly cloudy 8 - - - -
12/09:13pm 23.5 E 15 24 1012.2 - 2.2 - Partly cloudy 8 - - - -
12/09:00pm 23.4 E 15 21 1011.8 - 2.2 - Cloudy 6 - - - -
12/08:57pm 23.4 E 15 21 1012.2 - 2.2 - Partly cloudy 6 - - - -
12/08:42pm 23.4 E 17 22 1012.0 - 2.2 - Partly cloudy 8 - - - -
12/08:30pm 23.2 ENE 13 22 1011.9 - 2.2 - Partly cloudy 5 - - - -
12/08:10pm 23.2 E 15 20 1011.7 - 0.4 - Cloudy 6 - - - -
12/08:00pm 23.2 E 15 22 1011.6 - 0.4 - Cloudy 8 - - - -
12/07:30pm 22.9 E 18 26 1011.4 - 0.4 - Partly cloudy 9 - - - -
12/07:04pm 22.9 E 18 28 1011.1 - 0.4 - Partly cloudy 8 - - - -
12/07:03pm 22.9 E 19 28 1011.0 - 0.4 - Partly cloudy 8 - - - -
12/07:00pm 22.9 E 19 28 1010.9 - 0.4 - Partly cloudy 8 - - - -
12/06:32pm 23.0 E 19 29 1010.6 - 0.0 - Partly cloudy 4 - - - -
12/06:30pm 23.0 E 19 28 1010.6 - 0.0 - Partly cloudy 5 - - - -
12/06:29pm 23.0 E 18 28 1010.6 - 0.0 - Partly cloudy 5 - - - -
12/06:28pm 23.1 E 19 28 1010.6 - 0.0 - Partly cloudy 6 - - - -
12/06:12pm 22.8 E 18 28 1010.5 - 0.0 - Partly cloudy 3 - - - -
12/06:06pm 23.0 E 19 26 1010.5 - 0.0 - Partly cloudy 6 - - - -
12/06:00pm 23.1 E 19 26 1010.1 - 0.0 Showers Cloudy 8 - - - -
12/05:52pm 23.4 E 15 26 1010.4 - 0.0 Showers Partly cloudy 8 - - - -
12/05:30pm 23.7 E 16 22 1010.3 - 0.0 Showers Partly cloudy 10 - - - -
12/05:00pm 24.0 E 15 24 1010.2 - 0.0 Showers Partly cloudy 10 - - - -
12/04:30pm 24.0 E 16 26 1010.4 - 0.0 - Partly cloudy 10 - - - -
12/04:10pm 24.2 E 15 25 1010.3 - 0.0 - Partly cloudy 10 - - - -
12/04:00pm 24.4 E 15 20 1010.3 - 0.0 - Mostly clear 10 - - - -
12/03:30pm 25.0 E 16 21 1010.2 - 0.0 - Mostly clear 10 - - - -
12/03:00pm 24.9 E 16 23 1009.9 - 0.0 Haze Mostly cloudy 20 - - - -
12/02:30pm 25.1 E 14 17 1010.6 - 0.0 - Partly cloudy 10 - - - -
12/02:00pm 25.4 ESE 11 16 1010.9 - 0.0 - Partly cloudy 10 - - - -
12/01:30pm 24.8 ESE 12 19 1011.3 - 0.0 - Partly cloudy 10 - - - -
12/01:00pm 24.9 SE 13 18 1011.5 - 0.0 - Partly cloudy 10 - - - -
12/12:30pm 25.3 ESE 14 21 1011.6 - 0.0 - Partly cloudy 10 - - - -
12/12:00pm 25.2 ESE 10 15 1011.7 - 0.0 Haze Mostly cloudy 20 - - - -
12/11:30am 25.6 E 11 17 1012.2 - 0.0 - Partly cloudy 10 - - - -
12/11:00am 24.9 E 12 18 1012.4 - 0.0 - Partly cloudy 10 - - - -
12/10:30am 23.8 E 13 20 1012.7 - 0.0 - Partly cloudy 10 - - - -
12/10:00am 24.0 ESE 12 18 1013.0 - 0.0 - Partly cloudy 10 - - - -
12/09:30am 24.2 ESE 11 16 1012.8 - 0.0 - Partly cloudy 10 - - - -
12/09:00am 24.4 E 12 18 1012.2 - 0.2 Recent precip. Mostly cloudy 20 - - - -
12/08:30am 23.8 ESE 10 15 1012.8 - 0.2 - Mostly clear 10 - - - -
12/08:00am 23.1 ESE 10 14 1012.9 - 0.2 - Partly cloudy 10 - - - -
12/07:30am 22.7 ESE 9 15 1012.8 - 0.2 - Mostly clear 10 - - - -
12/07:00am 22.0 E 12 19 1012.6 - 0.0 Showers Partly cloudy 10 - - - -
12/06:48am 22.3 E 11 17 1012.5 - 0.0 - Partly cloudy 6 - - - -
12/06:45am 22.3 E 11 17 1012.6 - 0.0 - Partly cloudy 6 - - - -
12/06:30am 22.3 E 12 18 1012.4 - 0.0 - Partly cloudy 10 - - - -
12/06:14am 22.3 E 11 19 1012.2 - 0.0 - Partly cloudy 10 - - - -
12/06:00am 22.4 E 12 17 1011.6 - 0.0 - Cloudy 10 - - - -
12/05:59am 22.4 E 12 17 1012.0 - 0.0 - Partly cloudy 10 - - - -
12/05:50am 22.2 E 9 15 1011.9 - 0.0 - Partly cloudy 7 - - - -
12/05:31am 22.2 E 12 17 1011.9 - 0.0 - Partly cloudy 6 - - - -
12/05:30am 22.3 E 12 17 1011.9 - 0.0 - Partly cloudy 7 - - - -
12/05:10am 22.5 ESE 11 19 1011.7 - 0.0 - Partly cloudy 10 - - - -
12/05:00am 22.5 E 10 16 1011.6 - 0.0 - Partly cloudy 10 - - - -
12/04:35am 22.6 ESE 10 15 1011.3 - 0.0 - Partly cloudy 10 - - - -
12/04:30am 22.6 ESE 10 15 1011.3 - 0.0 - Partly cloudy 10 - - - -
12/04:07am 22.5 ESE 11 17 1011.1 - 0.0 - Partly cloudy 10 - - - -
12/04:00am 22.5 ESE 11 16 1011.0 - 0.0 - Partly cloudy 10 - - - -
12/03:46am 22.5 E 10 15 1011.1 - 0.0 - Partly cloudy 10 - - - -
12/03:30am 22.4 E 9 14 1011.1 - 0.0 - Partly cloudy 10 - - - -
12/03:14am 22.4 E 10 14 1011.2 - 0.0 - Partly cloudy 10 - - - -
12/03:01am 22.3 ESE 10 15 1011.2 - 0.0 - Partly cloudy 10 - - - -
12/03:00am 22.3 ESE 11 15 1010.8 - 0.0 - Cloudy 10 - - - -
12/02:44am 22.3 E 10 15 1011.4 - 0.0 - Partly cloudy 6 - - - -
12/02:30am 22.5 E 9 17 1011.5 - 0.0 - Cloudy 10 - - - -
12/02:00am 22.6 E 10 16 1011.5 - 0.0 - Partly cloudy 10 - - - -
12/01:30am 22.6 E 11 17 1011.7 - 0.0 - Partly cloudy 10 - - - -
12/01:00am 22.7 E 11 17 1011.8 - 0.0 - Partly cloudy 10 - - - -
12/12:30am 22.6 E 9 15 1012.0 - 0.0 - Cloudy 10 - - - -
12/12:00am 22.6 E 11 15 1011.7 - 0.0 - Cloudy 10 - - - -
 
Date/Time
EDT
Temp

°C
Wind Pressure Rain
since 9am
mm
Weather Cloud Vis
km
Sea
Height
m
Swell
Dir
 
Speed
knots
Gust
knots
hPa Trend Height
m
Period
s
Dir
11/11:30pm 22.6 E 12 16 1012.3 - 0.0 - Partly cloudy 10 - - - -
11/11:29pm 22.7 E 12 16 1012.4 - 0.0 - Partly cloudy 10 - - - -
11/11:00pm 22.6 E 13 19 1012.5 - 0.0 - Cloudy 10 - - - -
11/10:30pm 22.6 E 11 16 1012.7 - 0.0 - Partly cloudy 10 - - - -
11/10:00pm 22.5 E 13 18 1012.8 - 0.0 - Cloudy 10 - - - -
11/09:30pm 22.6 E 14 20 1012.8 - 0.0 - Cloudy 10 - - - -
11/09:00pm 22.7 E 13 19 1012.2 - 0.0 - Cloudy 10 - - - -
11/08:30pm 22.7 E 14 19 1012.7 - 0.0 - Cloudy 10 - - - -
11/08:00pm 22.7 E 13 19 1012.4 - 0.0 - Partly cloudy 10 - - - -
11/07:30pm 22.7 E 14 21 1012.1 - 0.0 - Partly cloudy 10 - - - -
11/07:00pm 22.7 E 14 20 1011.9 - 0.0 - Partly cloudy 10 - - - -
11/06:30pm 22.9 E 15 20 1011.6 - 0.0 - Partly cloudy 10 - - - -
11/06:03pm 23.0 E 15 25 1011.0 - 0.0 - Partly cloudy 10 - - - -
11/06:00pm 23.0 E 16 25 1010.6 - 0.0 Haze Mostly cloudy 20 - - - -
11/05:30pm 23.1 E 15 22 1010.7 - 0.0 - Partly cloudy 10 - - - -
11/05:00pm 23.5 E 14 20 1010.6 - 0.0 - Partly cloudy 10 - - - -
11/04:47pm 24.3 E 16 26 1010.6 - 0.0 - Partly cloudy 10 - - - -
11/04:30pm 23.6 E 17 25 1010.6 - 0.0 - Partly cloudy 10 - - - -
11/04:25pm 23.6 E 17 25 1010.6 - 0.0 - Partly cloudy 10 - - - -
11/04:15pm 24.0 E 13 18 1010.7 - 0.0 - Partly cloudy 10 - - - -
11/04:00pm 23.9 E 14 20 1010.8 - 0.0 - Partly cloudy 10 - - - -
11/03:56pm 24.0 E 14 20 1010.8 - 0.0 - Partly cloudy 10 - - - -
11/03:30pm 23.6 E 15 25 1010.8 - 0.0 - Partly cloudy 10 - - - -
11/03:22pm 23.7 E 15 25 1010.7 - 0.0 - Partly cloudy 10 - - - -
11/03:00pm 24.5 E 12 18 1010.2 - 0.0 - Cloudy 10 - - - -
11/02:30pm 23.9 E 14 20 1010.5 - 0.0 - Partly cloudy 10 - - - -
11/02:02pm 24.2 E 16 25 1010.7 - 0.0 - Partly cloudy 10 - - - -
11/02:00pm 24.2 E 16 25 1010.7 - 0.0 - Partly cloudy 10 - - - -
11/01:42pm 24.7 E 17 24 1010.9 - 0.0 - Partly cloudy 10 - - - -
11/01:30pm 24.5 E 16 27 1011.1 - 0.0 - Partly cloudy 10 - - - -
11/01:27pm 24.8 E 16 27 1011.1 - 0.0 - Partly cloudy 10 - - - -
11/01:25pm 24.9 E 17 26 1011.1 - 0.0 - Partly cloudy 10 - - - -
11/01:21pm 25.1 E 19 26 1011.0 - 0.0 - Partly cloudy 10 - - - -
11/01:00pm 24.6 E 17 27 1011.1 - 0.0 - Partly cloudy 10 - - - -
11/12:56pm 24.5 E 17 27 1011.2 - 0.0 - Partly cloudy 10 - - - -
11/12:30pm 24.3 E 16 23 1011.2 - 0.0 - Partly cloudy 10 - - - -
11/12:01pm 24.5 E 16 26 1011.2 - 0.0 - Partly cloudy 10 - - - -
11/12:00pm 24.7 E 17 26 1010.8 - 0.0 Haze Mostly cloudy 15 - - - -
11/11:30am 24.7 E 17 25 1011.2 - 0.0 - Partly cloudy 10 - - - -
11/11:10am 24.9 E 15 25 1011.2 - 0.0 - Mostly clear 10 - - - -
11/11:00am 24.4 E 19 26 1011.2 - 0.0 - Mostly clear 10 - - - -
11/10:32am 25.0 E 15 25 1011.4 - 0.0 - Partly cloudy 10 - - - -
11/10:30am 24.8 E 16 25 1011.4 - 0.0 - Partly cloudy 10 - - - -
11/10:00am 24.4 E 17 24 1011.3 - 0.0 - Partly cloudy 10 - - - -
11/09:30am 24.2 E 17 26 1011.2 - 0.0 - Mostly clear 10 - - - -
11/09:00am 23.6 E 17 24 1010.8 - 11.6 Recent precip. Mostly cloudy 20 - - - -
11/08:30am 23.2 E 13 19 1011.2 - 11.6 - Partly cloudy 10 - - - -
11/08:00am 23.0 E 13 18 1011.0 - 11.6 Showers Partly cloudy 10 - - - -
11/07:30am 23.0 E 15 21 1010.8 - 11.4 - Mostly clear 10 - - - -
11/07:00am 23.0 E 15 22 1010.7 - 11.4 - Partly cloudy 10 - - - -
11/06:30am 22.8 E 13 20 1010.5 - 11.4 - Partly cloudy 10 - - - -
11/06:15am 22.7 E 13 19 1010.3 - 11.4 - Partly cloudy 10 - - - -
11/06:12am 22.7 E 14 17 1010.3 - 11.4 - Partly cloudy 10 - - - -
11/06:00am 22.5 E 12 17 1009.6 - 11.4 - Cloudy 10 - - - -
11/05:51am 22.4 E 15 20 1010.0 - 11.4 - Partly cloudy 10 - - - -
11/05:30am 22.3 E 11 16 1009.8 - 11.2 - Partly cloudy 10 - - - -
11/05:10am 22.2 E 12 16 1009.7 - 11.2 - Partly cloudy 10 - - - -
11/05:08am 22.2 E 12 16 1009.7 - 11.2 - Partly cloudy 10 - - - -
11/05:06am 22.2 E 12 16 1009.7 - 11.2 - Partly cloudy 10 - - - -
11/05:00am 22.1 E 12 17 1009.6 - 11.2 - Partly cloudy 10 - - - -
11/04:46am 22.1 E 11 19 1009.7 - 11.0 - Partly cloudy 5 - - - -
11/04:34am 22.3 E 11 17 1009.5 - 9.6 - Partly cloudy 10 - - - -
11/04:30am 22.3 E 11 17 1009.4 - 9.6 - Partly cloudy 10 - - - -
11/04:25am 22.4 E 12 18 1009.4 - 9.6 - Partly cloudy 10 - - - -
11/04:00am 22.3 E 13 19 1009.3 - 9.6 - Partly cloudy 10 - - - -
11/03:41am 22.4 E 11 18 1009.2 - 9.6 - Partly cloudy 10 - - - -
11/03:30am 22.3 E 11 16 1009.2 - 9.6 - Partly cloudy 6 - - - -
11/03:27am 22.3 E 11 16 1009.2 - 9.6 - Partly cloudy 6 - - - -
11/03:06am 22.3 E 11 17 1009.2 - 9.4 - Partly cloudy 7 - - - -
11/03:00am 22.3 ESE 12 19 1008.7 - 9.4 - Cloudy 8 - - - -
11/02:50am 22.4 E 12 19 1009.2 - 9.4 - Partly cloudy 6 - - - -
11/02:41am 22.4 E 12 16 1009.2 - 9.4 - Partly cloudy 10 - - - -
11/02:30am 22.3 E 11 17 1009.2 - 9.4 - Partly cloudy 10 - - - -
11/02:12am 22.3 E 12 17 1009.3 - 9.4 - Partly cloudy 10 - - - -
11/02:09am 22.3 E 12 17 1009.3 - 9.4 - Partly cloudy 10 - - - -
11/02:00am 22.3 E 13 19 1009.4 - 9.4 - Partly cloudy 8 - - - -
11/01:50am 22.3 E 14 22 1009.4 - 9.4 - Partly cloudy 6 - - - -
11/01:30am 22.6 E 11 15 1009.4 - 9.2 - Partly cloudy 10 - - - -
11/01:29am 22.6 E 11 15 1009.4 - 9.2 - Partly cloudy 10 - - - -
11/01:18am 22.6 E 11 18 1009.5 - 9.2 - Partly cloudy 10 - - - -
11/01:07am 22.6 E 12 18 1009.5 - 9.2 - Partly cloudy 10 - - - -
11/01:00am 22.5 E 11 19 1009.5 - 9.2 - Partly cloudy 10 - - - -
11/12:50am 22.5 E 13 21 1009.5 - 9.2 - Partly cloudy 10 - - - -
11/12:43am 22.5 E 14 21 1009.5 - 9.2 - Partly cloudy 10 - - - -
11/12:30am 22.3 E 13 18 1009.5 - 9.2 - Partly cloudy 5 - - - -
11/12:18am 22.0 E 15 22 1009.7 - 9.0 - Partly cloudy 6 - - - -
11/12:13am 22.1 E 15 22 1009.6 - 9.0 - Partly cloudy 10 - - - -
11/12:01am 22.2 E 14 21 1009.6 - 9.0 - Partly cloudy 6 - - - -
11/12:00am 22.3 E 13 21 1009.1 - 9.0 - Cloudy 7 - - - -
 
Date/Time
EDT
Temp

°C
Wind Pressure Rain
since 9am
mm
Weather Cloud Vis
km
Sea
Height
m
Swell
Dir
 
Speed
knots
Gust
knots
hPa Trend Height
m
Period
s
Dir
10/11:30pm 22.5 E 15 22 1009.7 - 9.0 - Partly cloudy 10 - - - -
10/11:00pm 22.6 E 15 21 1009.7 - 9.0 - Partly cloudy 9 - - - -
10/10:53pm 22.6 E 14 19 1009.8 - 9.0 - Partly cloudy 9 - - - -
10/10:35pm 22.7 E 13 19 1009.9 - 8.8 - Partly cloudy 6 - - - -
10/10:33pm 22.7 E 13 19 1009.9 - 8.8 - Partly cloudy 8 - - - -
10/10:30pm 22.7 E 14 19 1009.8 - 8.8 - Partly cloudy 9 - - - -
10/10:28pm 22.7 E 14 19 1009.9 - 8.8 - Partly cloudy 9 - - - -
10/10:15pm 22.5 E 12 22 1009.9 - 8.8 - Partly cloudy 9 - - - -
10/10:12pm 22.5 E 13 18 1009.8 - 8.8 - Partly cloudy 10 - - - -
10/10:03pm 22.4 E 14 19 1009.8 - 8.8 - Partly cloudy 5 - - - -
10/10:00pm 22.3 E 14 19 1009.9 - 8.8 - Partly cloudy 5 - - - -
10/09:56pm 22.2 E 14 19 1009.9 - 8.8 - Partly cloudy 6 - - - -
10/09:53pm 22.2 E 13 19 1009.8 - 8.6 - Partly cloudy 8 - - - -
10/09:30pm 22.4 E 13 21 1009.8 - 8.0 - Partly cloudy 4 - - - -
10/09:28pm 22.5 E 13 18 1009.9 - 7.8 - Partly cloudy 4 - - - -
10/09:17pm 22.7 E 13 20 1009.7 - 5.6 - Partly cloudy 5 - - - -
10/09:00pm 22.8 E 15 19 1009.1 - 5.4 - Cloudy 10 - - - -
10/08:57pm 22.8 E 14 19 1009.6 - 5.4 - Partly cloudy 10 - - - -
10/08:42pm 23.0 E 13 19 1009.5 - 5.4 - Partly cloudy 10 - - - -
10/08:30pm 22.9 E 13 18 1009.4 - 5.4 - Partly cloudy 10 - - - -
10/08:28pm 22.9 E 13 18 1009.3 - 5.4 - Partly cloudy 10 - - - -
10/08:05pm 22.3 E 11 15 1009.1 - 5.4 - Partly cloudy 10 - - - -
10/08:00pm 22.2 E 13 19 1009.0 - 5.4 - Partly cloudy 10 - - - -
10/07:50pm 22.4 E 14 20 1008.8 - 5.4 - Partly cloudy 6 - - - -
10/07:45pm 22.6 E 12 20 1008.7 - 5.2 - Partly cloudy 10 - - - -
10/07:30pm 22.6 E 10 13 1008.4 - 5.2 - Partly cloudy 10 - - - -
10/07:00pm 22.2 E 12 16 1008.2 - 5.2 - Partly cloudy 10 - - - -
10/06:46pm 22.1 E 12 17 1008.0 - 5.2 - Partly cloudy 10 - - - -
10/06:33pm 22.4 E 12 20 1007.8 - 5.2 - Partly cloudy 10 - - - -
10/06:30pm 22.7 E 10 18 1007.7 - 5.2 - Partly cloudy 10 - - - -
10/06:15pm 22.6 E 11 15 1007.4 - 5.2 - Partly cloudy 6 - - - -
10/06:08pm 23.0 ESE 10 16 1007.2 - 5.0 - Partly cloudy 10 - - - -
10/06:00pm 22.9 ESE 12 19 1006.6 - 5.0 Fine Mostly cloudy 15 - - - -

Other Formats:

Comma delimited format used in spreadsheet applications
http://www.bom.gov.au/fwo/IDN60701/IDN60701.94996.axf

JavaScript Object Notation format (JSON) in row-major order
http://www.bom.gov.au/fwo/IDN60701/IDN60701.94996.json